Flag for U.S.A. Weather past 2 weeks in Rancho Cucamonga, California, U.S.A.

Now
72 °F

Clear.


Feels Like: 77 °F
Forecast: 66 / 96 °F
Wind: 3 mph from North

Location: Ontario International Airport

Current Time: Aug 28, 2014 at 7:03:12 AM

Latest Report: Aug 28, 2014 at 5:53 AM


Visibility: 10 mi

Pressure: 29.96 "Hg

Humidity: 49%

Dew point: 52 °F

Location of Rancho CucamongaLocation

Historic Weather in Rancho Cucamonga — Graph

°F

Rancho Cucamonga temperature yesterday

Maximum temperature yesterday: 96 °F (at 1:53 PM)
Minimum temperature yesterday: 69 °F (at 3:53 AM)
Average temperature yesterday: 82 °F

Past Weeks' High & Low Weather Summary

 TemperatureHumidityPressure
High98 °F (Aug 15, 3:53 PM)90% (Aug 23, 4:53 AM)30.01 "Hg (Aug 23, 4:53 AM)
Low62 °F (Aug 24, 6:00 AM)17% (Aug 15, 9:53 PM)29.73 "Hg (Aug 18, 4:53 PM)
Average78 °F50%29.88 "Hg
* Reported Aug 13 5:53 AM — Aug 28 5:53 AM, Rancho Cucamonga, Weather by CustomWeather, © 2014

Note: Actual official high and low records may vary slightly from our data, if they occured in-between our weather recording intervals... More about our weather records

Advertising

Rancho Cucamonga weather history for previous 24 hours

 ConditionsComfort  
Time TempWeatherWind HumidityBarometerVisibility
5:53 AM
Aug 28
72 °FClear.3 mph49%29.96 "Hg10 mi
4:53 AM72 °FClear.No wind46%29.95 "Hg10 mi
3:53 AM73 °FClear.No wind46%29.96 "Hg10 mi
2:53 AM73 °FClear.No wind44%29.96 "Hg10 mi
1:53 AM74 °FClear.No wind40%29.97 "Hg10 mi
12:53 AM74 °FClear.5 mph40%29.98 "Hg10 mi
11:53 PM
Aug 27
78 °FClear.3 mph35%29.98 "Hg10 mi
10:53 PM79 °FClear.5 mph34%29.97 "Hg10 mi
9:53 PM80 °FClear.5 mph32%29.98 "Hg10 mi
8:53 PM83 °FClear.6 mph28%29.96 "Hg10 mi
7:53 PM86 °FSunny.7 mph26%29.94 "Hg10 mi
6:53 PM88 °FSunny.12 mph26%29.93 "Hg10 mi
5:53 PM92 °FSunny.13 mph23%29.93 "Hg10 mi
4:53 PM93 °FPassing clouds.14 mph21%29.92 "Hg10 mi
3:53 PM95 °FPassing clouds.16 mph20%29.92 "Hg10 mi
2:53 PM96 °FPassing clouds.15 mph19%29.93 "Hg10 mi
1:53 PM96 °FPassing clouds.12 mph20%29.95 "Hg10 mi
12:53 PM93 °FSunny.7 mph20%29.96 "Hg10 mi
11:53 AM90 °FPassing clouds.6 mph19%29.98 "Hg10 mi
10:53 AM86 °FSunny.No wind26%30.00 "Hg10 mi
9:53 AM82 °FSunny.No wind38%30.01 "Hg10 mi
8:53 AM76 °FSunny.No wind52%30.01 "Hg9 mi
7:53 AM73 °FSunny.3 mph59%30.00 "Hg9 mi
Weather by CustomWeather, © 2014

See weather overviewHow to use our weather pages